Погода в Усть-Ижоре

Россия / Санкт-Петербург и Ленинградская область     59°48′20″N   30°35′38″E
темп.,
°C
ветер,
м/с
пор.,
м/с
влажн.,
%
обл.,
%
осадки,
мм/ч
давл.,
гПа
погр.,
м
28 июля, ср
ср2800:00+19юв3457100 0.0 101559
03:00+17юв3565100 0.0 101494
06:00+18юв2467100 0.0 101294
09:00+22ююв355998 0.0 1011353
12:00+25ююз2352100 0.1 10101015
15:00+25юз2259100 0.3 1009843
18:00+22ююз3573100 1.2 1008431
21:00+20зюз248783 6.6 100663
29 июля, чт
чт2900:00+17зюз129611 2.7 100629
03:00+16юз2496100 3.0 100584
06:00+16юз399261 0.0 1004229
09:00+20зюз4977100 0.0 1003480
12:00+23з465556 0.0 10031287
15:00+24зюз4657100 1.6 10021270
18:00+22з386696 0.3 1001791
21:00+19зсз258328 0.6 100199
30 июля, пт
пт3000:00+16зюз358989 0.0 1001104
03:00+15юз310937 0.0 1001258
06:00+14юз3108959 0.0 1001340
09:00+18юз487556 0.1 10011054
12:00+22юз684399 0.1 10002266
15:00+22юз7105010 0.1 10001700
18:00+22ююз51046100 0.3 9992331
21:00+18юз4106136 0.3 998618
31 июля, сб
сб3100:00+13ю3109067 0.3 997249
03:00+13ю51384100 0.4 996551
06:00+13ю51294100 1.8 995694
09:00+16зюз7118651 2.4 9961048
12:00+21з7115843 0.4 9971636
15:00+23з6104110 0.5 9991940
18:00+23зсз58515 0.0 10001210
21:00+17з22723 0.0 100118
1 августа, вс
вс100:00+15ююз2288100 0.0 100139
03:00+15ю359691 0.0 1001107
06:00+15ю389886 2.4 999217
09:00+18юз468674 4.6 999657
12:00+22юз695645 0.3 9991717
15:00+22зюз7105599 0.3 10001710
18:00+20зюз611675 1.1 10001440
21:00+18зюз5116919 1.6 1002643